Satellite: PO-34
Catalog number: 25520
Epoch time:      08199.58663522
Element set:      38
Inclination:      028.4601 deg
RA of node:       335.2537 deg
Eccentricity:    0.0005529
Arg of perigee:   251.7237 deg
Mean anomaly:     108.2745 deg
Mean motion:   15.17210546 rev/day
Decay rate:       3.37e-06 rev/day^2
Epoch rev:           53778
Checksum:              305

Satellite: ISS
Catalog number: 25544
Epoch time:      08198.84913194
Element set:    0871
Inclination:      051.6411 deg
RA of node:       223.8339 deg
Eccentricity:    0.0009657
Arg of perigee:   022.5100 deg
Mean anomaly:     346.0819 deg
Mean motion:   15.75101431 rev/day
Decay rate:      7.081e-05 rev/day^2
Epoch rev:           55320
Checksum:              284

Satellite: CO-58
Catalog number: 28895
Epoch time:      08199.41901770
Element set:      71
Inclination:      098.0967 deg
RA of node:       092.7073 deg
Eccentricity:    0.0017215
Arg of perigee:   318.4508 deg
Mean anomaly:     041.5391 deg
Mean motion:   14.59683204 rev/day
Decay rate:        9.1e-07 rev/day^2
Epoch rev:           14489
Checksum:              333

Satellite: NCUBE2
Catalog number: 28897
Epoch time:      08199.24292736
Element set:     602
Inclination:      098.0931 deg
RA of node:       092.4627 deg
Eccentricity:    0.0016830
Arg of perigee:   320.4834 deg
Mean anomaly:     039.5135 deg
Mean motion:   14.59854487 rev/day
Decay rate:        5.8e-07 rev/day^2
Epoch rev:           13715
Checksum:              329

Satellite: FCAL
Catalog number: 29667
Epoch time:      08146.34060426
Element set:     979
Inclination:      051.6107 deg
RA of node:       065.3702 deg
Eccentricity:    0.0009039
Arg of perigee:   260.8350 deg
Mean anomaly:     099.5042 deg
Mean motion:   16.53464210 rev/day
Decay rate:  1.1864717e-01 rev/day^2
Epoch rev:            8291
Checksum:              307

Satellite: FALCON
Catalog number: 30776
Epoch time:      08199.79868400
Element set:     356
Inclination:      035.4354 deg
RA of node:       327.8386 deg
Eccentricity:    0.0002086
Arg of perigee:   299.3326 deg
Mean anomaly:     060.7181 deg
Mean motion:   15.03020163 rev/day
Decay rate:       2.09e-06 rev/day^2
Epoch rev:            7475
Checksum:              304

Satellite: MAST
Catalog number: 31126
Epoch time:      08198.22420802
Element set:    0377
Inclination:      098.0373 deg
RA of node:       261.4971 deg
Eccentricity:    0.0093672
Arg of perigee:   241.7907 deg
Mean anomaly:     117.3807 deg
Mean motion:   14.53434845 rev/day
Decay rate:       1.46e-06 rev/day^2
Epoch rev:           06623
Checksum:              298

Satellite: CAPE1
Catalog number: 31130
Epoch time:      08198.96214997
Element set:    0356
Inclination:      098.0375 deg
RA of node:       261.1463 deg
Eccentricity:    0.0101499
Arg of perigee:   242.3542 deg
Mean anomaly:     116.7314 deg
Mean motion:   14.51976242 rev/day
Decay rate:       -2.7e-07 rev/day^2
Epoch rev:           06604
Checksum:              297

Satellite: CUTE1-7
Catalog number: 32785
Epoch time:      08198.23182005
Element set:    0109
Inclination:      097.9925 deg
RA of node:       258.0801 deg
Eccentricity:    0.0016017
Arg of perigee:   044.5720 deg
Mean anomaly:     315.6777 deg
Mean motion:   14.81376785 rev/day
Decay rate:       3.63e-06 rev/day^2
Epoch rev:           01170
Checksum:              309

Satellite: COMPASS
Catalog number: 32787
Epoch time:      08198.22905999
Element set:    0094
Inclination:      097.9877 deg
RA of node:       258.0386 deg
Eccentricity:    0.0016893
Arg of perigee:   046.0766 deg
Mean anomaly:     314.1837 deg
Mean motion:   14.81434913 rev/day
Decay rate:       2.75e-06 rev/day^2
Epoch rev:           01170
Checksum:              343

Satellite: AAUSAT2
Catalog number: 32788
Epoch time:      08198.89867114
Element set:    0104
Inclination:      097.9872 deg
RA of node:       258.7168 deg
Eccentricity:    0.0016755
Arg of perigee:   047.6829 deg
Mean anomaly:     312.5794 deg
Mean motion:   14.81544013 rev/day
Decay rate:       2.25e-06 rev/day^2
Epoch rev:           01180
Checksum:              334

Satellite: DO-64
Catalog number: 32789
Epoch time:      08198.90544276
Element set:    0114
Inclination:      097.9901 deg
RA of node:       258.7407 deg
Eccentricity:    0.0016639
Arg of perigee:   044.5300 deg
Mean anomaly:     315.7241 deg
Mean motion:   14.81429221 rev/day
Decay rate:       1.25e-06 rev/day^2
Epoch rev:           01180
Checksum:              302

Satellite: SEEDS
Catalog number: 32791
Epoch time:      08198.43916506
Element set:    0098
Inclination:      097.9913 deg
RA of node:       258.2607 deg
Eccentricity:    0.0017212
Arg of perigee:   044.0520 deg
Mean anomaly:     316.2067 deg
Mean motion:   14.81292219 rev/day
Decay rate:       1.81e-06 rev/day^2
Epoch rev:           01170
Checksum:              287

Satellite: CANX-2
Catalog number: 32797
Epoch time:      08198.82301191
Element set:      47
Inclination:      097.9975 deg
RA of node:       258.7216 deg
Eccentricity:    0.0017745
Arg of perigee:   050.5655 deg
Mean anomaly:     309.7120 deg
Mean motion:   14.81840117 rev/day
Decay rate:      1.469e-05 rev/day^2
Epoch rev:            1047
Checksum:              317

